Location: ???????
(52.3000°N, 54.4667°E)
Time: 09:43:55
(UTC+00:00)

STARLINK-1101 - Pass Details

Date: 24 January 2020
Orbit: 525 x 527 km, 53.0° (Epoch: 17 February)

Event Time Altitude Azimuth Distance (km) Brightness Sun altitude
Rises 13:33:22 0° 257° (WSW) 2,641 9.3 -6.3°
Reaches altitude 10° 13:35:35 10° 258° (WSW) 1,751 7.9 -6.6°
Maximum altitude 13:39:33 90° 293° (WNW) 522 3.5 -7.2°
Drops below altitude 10° 13:43:30 10° 79° (E) 1,739 5.5 -7.7°
Enters shadow 13:43:35 10° 79° (E) 1,772 5.6 -7.7°
